GHGSAT-C12

Satellite information

Favourite Embed

Satellite Type and Status

PAYLOADIN ORBIT

Key statistics

Satellite GHGSAT-C12 at a glance.

Uptime

174

Days in orbit

Revolutions

≈ 15.2

Per day

Orbit

SSO

Sun Synchronous Orbit

Inclination

97.5

Latest

Satellite identification and parameters

Extended collection of information and parameters for GHGSAT-C12.

Object identification

Identified? True

Debris? False

Object name: GHGSAT-C12

International designator: 2025-135B

Object number (NORAD): 64529

Object ID (CCSDS): 64529

Country: CANADA (CA)

Current information (Y/N): Y

RCS size: SMALL

Orbital parameters

Period: 94.819 minutes

Inclination: 97.4607 deg

SMA: 6887.959 km

Apoapsis: 514.306 km

Periapsis: 505.342 km

RAAN: 99.485 deg

Eccentricy: 0.00065064

Argument of periapsis: 98.8453 deg

Mean anomaly: 261.3518 deg

Mean motion: 15.18682308 rev/day

Mean motion (dot): 0.00005533 rev/day2

B* drag term: 0.00026995931 1/REarth

Two-line elements (TLE)

Creation date: Dec. 14, 2025, 3:07 a.m.

Reference frame: TEME

Reference center: EARTH

Epoch: Dec. 13, 2025, 2:46 p.m. UTC

TLE line 0: 0 GHGSAT-C12

TLE line 1: 1 64529U 25135B 25347.61528646 .00005533 00000-0 26996-3 0 9992

TLE line 2: 2 64529 97.4607 99.4850 0006506 98.8453 261.3518 15.18682308 26646

Live tracking on map

Real-time ground track for satellite GHGSAT-C12.

In-orbit conjunctions

There are no conjunctions computed for GHGSAT-C12, at the moment. Check back to stay up to date, as we update our databases every day.

Go to all conjunctions

Associated space launch

Dedicated rideshare flight to a sun-synchronous orbit with dozens of small microsatellites and nanosatellites for commercial and government customers.

GHGSAT-C12 was lifted into orbit during the mission ‘Falcon 9 Block 5 | Transporter 14 (Dedicated SSO Rideshare)’, on board a Falcon 9 space rocket.

The launch took place on June 23, 2025, 9:25 p.m. from Space Launch Complex 4E.

For more information about the launch, click the button.

Launch to space Falcon 9 Block 5 | Transporter 14 (Dedicated SSO Rideshare)
Falcon 9 Block 5 | Transporter 14 (Dedicated SSO Rideshare)

Agency: SpaceX

Status: Launch Successful

Launch date: June 23, 2025, 9:25 p.m. UTC

Rocket: Falcon 9

Launch pad: Space Launch Complex 4E

Location: Vandenberg SFB, CA, USA

...

Latest news about this satellite

News about space launch
The Exploration Company still studying Mission Possible reentry

The Exploration Company is still studying what happened in the final phases of a test flight three months ago that resulted in the loss of the spacecraft. The post The Exploration Company still studying Mission Possible reentry appeared first on SpaceNew...

News about space launch
A European spacecraft company flies its vehicle, then loses it after reentry

"This partial success reflects both ambition and the inherent risks of innovation."

News about space launch
The Exploration Company claims partial success of Mission Possible reentry spacecraft

The Exploration Company said it achieved “partial success” on a test flight of a reentry capsule but lost the spacecraft before it splashed down. The post The Exploration Company claims partial success of Mission Possible reentry spacecraft appeared firs...


Newsletter sign-up

Weekly statistics, charts and insights to help you stay on top of the space industry.